SCP
0 0 0 0 0 0 0 0 0 0 0 0 0 0 0 0 0 0 0 0 0 1 1 1 1 1 1 1 1 0 0 0 0 0 0 0 0 0 0 0 0 0 0 0 0 0 0 0 0
0 0 0 0 0 0 0 0 0 0 0 0 0 0 0 0 0 0 0 0 0 1 1 1 1 1 1 1 1 0 0 0 0 0 0 0 0 0 0 0 0 0 0 0 0 0 0 0 0
0 0 0 0 0 0 0 0 0 0 0 0 0 0 0 0 0 0 0 0 0 1 1 1 1 1 1 1 1 0 0 0 0 0 0 0 0 0 0 0 0 0 0 0 0 0 0 0 0
0 0 0 0 0 0 0 0 0 0 0 0 0 0 0 0 0 0 0 0 1 1 1 1 1 1 1 1 1 1 0 0 0 0 0 0 0 0 0 0 0 0 0 0 0 0 0 0 0
0 0 0 0 0 0 0 0 0 0 0 0 0 0 0 0 0 0 0 0 1 1 1 1 1 1 1 1 1 1 0 0 0 0 0 0 0 0 0 0 0 0 0 0 0 0 0 0 0
0 0 0 0 0 0 0 0 0 0 0 0 0 0 0 0 0 0 0 0 1 1 1 1 1 1 1 2 1 1 1 0 0 0 0 0 0 0 0 0 0 0 0 0 0 0 0 0 0
0 0 0 0 0 0 0 0 0 0 0 0 0 0 0 0 0 0 0 1 1 1 1 1 1 1 1 2 1 1 1 0 0 0 0 0 0 0 0 0 0 0 0 0 0 0 0 0 0
0 0 0 0 0 0 0 0 0 0 0 0 0 0 0 0 0 0 0 1 1 1 1 1 1 1 1 1 1 1 1 1 0 0 0 0 0 0 0 0 0 0 0 0 0 0 0 0 0
0 0 0 0 0 0 0 0 0 0 0 0 0 0 0 0 0 0 0 1 1 1 1 1 1 1 1 1 1 1 1 0 0 0 0 0 0 0 0 0 0 0 0 0 0 0 0 0 0
0 0 0 0 0 0 0 0 0 0 0 0 0 0 0 0 0 0 0 0 1 1 1 1 1 1 1 1 1 1 0 0 0 0 0 0 0 0 0 0 0 0 0 0 0 0 0 0 0
0 0 0 0 0 0 0 0 0 0 0 0 0 0 0 0 0 0 0 0 0 1 1 1 1 1 1 1 1 1 0 0 0 0 0 0 0 0 0 0 0 0 0 0 0 0 0 0 0
0 0 0 0 0 0 0 0 0 0 0 0 0 0 0 0 0 0 0 0 0 0 1 1 1 1 1 1 1 0 0 0 0 0 0 0 0 0 0 0 0 0 0 0 0 0 0 0 0
0 0 0 0 0 0 0 0 0 0 0 0 0 0 0 0 0 0 0 0 0 0 0 0 0 0 0 0 0 0 0 0 0 0 0 0 0 0 0 0 0 0 0 0 0 0 0 0 0
0 0 0 0 0 0 0 0 0 0 0 0 0 0 0 0 0 0 0 0 0 0 0 0 0 0 0 0 0 0 0 0 0 0 0 0 0 0 0 0 0 0 0 0 0 0 0 0 0
0 0 0 0 0 0 0 0 0 0 0 0 0 0 0 0 0 0 0 0 0 0 0 0 0 0 0 0 0 0 0 0 0 0 0 0 0 0 0 0 0 0 0 0 0 0 0 0 0
0 0 0 0 0 0 0 0 0 0 0 0 0 0 0 0 0 0 0 0 0 0 0 0 0 0 0 0 0 0 0 0 0 0 0 0 0 0 0 0 0 0 0 0 0 0 0 0 0
0 0 0 0 0 0 0 0 0 0 0 0 0 0 0 0 0 0 0 0 0 0 0 0 0 0 0 0 0 0 0 0 0 0 0 0 0 0 0 0 0 0 0 0 0 0 0 0 0
0 0 0 0 0 0 0 0 0 0 0 0 0 0 0 0 0 0 0 0 0 0 0 0 0 0 0 0 0 0 0 0 0 0 0 0 0 0 0 0 0 0 0 0 0 0 0 0 0
0 0 0 0 0 0 0 0 0 0 0 0 0 0 0 0 0 0 0 0 0 0 0 0 0 0 0 0 0 0 0 0 0 0 0 0 0 0 0 0 0 0 0 0 0 0 0 0 0
0 0 0 0 0 0 0 0 0 0 0 0 0 0 0 0 0 0 0 0 0 0 0 0 0 0 0 0 0 0 0 0 0 0 0 0 0 0 0 0 0 0 0 0 0 0 0 0 0
0 0 0 0 0 0 0 0 0 0 0 0 0 0 0 0 0 0 0 0 0 0 0 0 0 0 0 0 0 0 0 0 0 0 0 0 0 0 0 0 0 0 0 0 0 0 0 0 0
0 0 0 0 0 0 0 0 0 0 0 0 0 0 0 0 0 0 0 0 0 0 0 0 0 0 0 0 0 0 0 0 0 0 0 0 0 0 0 0 0 0 0 0 0 0 0 0 0
0 0 0 0 0 0 0 0 0 0 0 0 0 0 0 0 0 0 0 0 0 0 0 0 0 0 0 0 0 0 0 0 0 0 0 0 0 0 0 0 0 0 0 0 0 0 0 0 0
0 0 0 0 0 0 0 0 0 0 0 0 0 0 0 0 0 0 0 0 0 0 0 0 0 0 0 0 0 0 0 0 0 0 0 0 0 0 0 0 0 0 0 0 0 0 0 0 0
0 0 0 0 0 0 0 0 0 0 0 0 0 0 0 0 0 0 0 0 0 0 0 0 0 0 0 0 0 0 0 0 0 0 0 0 0 0 0 0 0 0 0 0 0 0 0 0 0
0 0 0 0 0 0 0 0 0 0 0 0 0 0 0 0 0 0 0 0 0 0 0 0 0 0 0 0 0 0 0 0 0 0 0 0 0 0 0 0 0 0 0 0 0 0 0 0 0
0 0 0 0 0 0 0 0 0 0 0 0 0 0 0 0 0 0 0 0 0 0 0 0 0 0 0 0 0 0 0 0 0 0 0 0 0 0 0 0 0 0 0 0 0 0 0 0 0
0 0 0 0 0 0 0 0 0 0 0 0 0 0 0 0 0 0 0 0 0 0 0 0 0 0 0 0 0 0 0 0 0 0 0 0 0 0 0 0 0 0 0 0 0 0 0 0 0
0 0 0 0 0 0 0 0 0 0 0 0 0 0 0 0 0 0 0 0 0 0 0 0 0 0 0 0 0 0 0 0 0 0 0 0 0 0 0 0 0 0 0 0 0 0 0 0 0
0 0 0 0 0 0 0 0 0 0 0 0 0 0 0 0 0 0 0 0 0 0 0 0 0 0 0 0 0 0 0 0 0 0 0 0 0 0 0 0 0 0 0 0 0 0 0 0 0
Wind_Speed
6 5 4 4 7 9 15 11 9 7 7 6 6 7 8 8 5 1 5 15 17 20 20 22 21 20 19 18 17 17 16 16 15 15 14 14 14 14 14 14 14 14 14 14 14 14 15 15 15
6 5 5 6 9 12 12 12 13 11 4 4 6 7 7 7 0 5 8 15 19 20 19 20 21 20 19 18 18 17 16 16 15 15 14 14 14 14 14 14 14 14 14 14 14 14 14 15 15
6 5 6 7 11 14 9 7 11 10 6 6 6 6 6 4 4 6 10 18 19 19 18 19 21 20 20 19 18 17 16 16 15 15 14 14 14 14 14 14 14 13 13 13 13 14 14 14 14
6 6 7 11 18 17 11 3 3 6 7 7 7 6 4 2 1 7 15 19 20 19 18 20 20 21 20 19 18 17 16 16 16 15 14 14 14 14 14 13 13 13 12 12 13 13 13 13 13
6 7 11 15 20 15 12 10 5 5 6 7 8 6 5 4 4 10 16 19 20 19 17 20 20 21 20 19 18 18 17 16 15 15 14 14 14 14 14 13 12 12 12 12 12 12 12 12 12
7 8 12 17 19 16 13 13 11 11 9 6 7 7 4 5 8 13 17 18 18 18 17 18 20 19 19 19 19 18 17 16 15 15 15 14 14 14 13 12 12 12 12 12 12 12 12 11 11
10 10 16 18 17 16 14 12 15 14 14 11 7 7 6 8 9 14 16 17 17 17 16 16 18 17 18 18 18 18 17 16 15 15 14 14 13 13 13 12 12 11 11 11 11 11 11 10 10
9 8 16 17 17 15 10 11 11 15 14 9 8 9 7 11 13 15 15 15 16 16 16 16 17 16 16 16 16 15 15 15 15 14 13 12 12 12 12 12 11 11 11 10 10 10 10 10 9
9 12 17 18 14 11 8 11 10 7 9 8 7 4 3 16 17 17 15 15 16 16 15 15 16 15 15 15 15 15 14 13 13 12 12 11 10 11 10 10 10 10 10 10 10 10 10 9 9
13 17 22 14 12 9 9 10 8 8 11 11 9 4 9 17 19 20 20 21 20 20 19 16 16 16 15 12 13 11 11 12 11 11 13 9 8 7 8 10 9 9 9 9 9 9 8 5 5
15 20 19 17 14 11 11 10 8 10 12 12 13 13 15 18 19 20 21 22 22 21 19 18 16 16 15 11 10 8 7 9 10 12 12 9 8 7 7 6 7 7 8 7 8 7 4 4 3
18 20 19 17 14 14 14 11 11 13 12 6 8 12 18 20 21 22 22 21 20 20 21 18 18 15 15 13 10 9 8 8 8 10 12 9 6 7 7 5 6 6 5 5 5 3 5 4 4
25 21 18 18 16 16 16 17 15 15 13 8 5 11 17 21 22 21 19 18 19 20 21 20 19 17 15 13 10 10 9 9 9 9 10 10 8 8 7 6 6 6 5 6 5 5 5 5 4
18 21 20 18 18 18 18 20 18 17 14 12 10 14 17 20 22 20 19 20 20 21 21 20 20 18 16 14 12 11 10 9 9 9 11 11 8 8 8 7 7 6 6 5 5 5 5 4 3
18 18 20 21 20 17 15 22 24 20 16 16 15 15 16 18 19 21 22 22 22 21 21 21 20 19 18 16 14 10 10 10 9 9 11 12 10 9 8 7 7 6 6 7 5 6 4 3 3
17 19 21 21 21 19 18 25 20 18 19 20 18 17 16 17 20 20 21 20 19 19 20 20 17 19 19 16 14 10 10 11 9 9 10 13 12 11 9 7 7 7 7 6 6 5 5 4 4
16 21 24 21 20 19 22 23 17 16 17 19 19 18 17 17 19 20 20 20 19 20 20 20 20 20 19 16 12 11 10 11 10 9 10 12 13 12 10 8 8 9 7 7 6 6 5 5 4
20 24 24 24 17 21 24 24 18 14 17 19 19 19 18 18 19 20 20 20 19 19 19 20 20 19 18 14 11 9 10 10 10 10 11 13 12 13 11 8 10 10 8 7 7 7 5 4 4
22 23 24 20 16 17 23 25 22 19 18 19 19 19 19 19 19 18 18 19 19 19 20 21 21 20 16 13 13 13 13 12 11 11 13 15 14 14 13 9 10 10 9 9 10 8 8 5 4
24 24 22 16 14 15 19 22 21 21 22 20 21 21 20 20 18 17 17 18 20 21 22 22 22 21 20 16 15 13 13 11 10 10 12 15 15 15 12 13 11 11 9 11 11 9 7 5 6
26 25 23 16 11 14 14 20 22 21 21 20 21 21 21 20 20 18 18 19 20 21 22 20 23 22 23 20 14 11 10 9 10 13 13 16 16 16 15 15 13 12 11 10 12 11 11 7 7
25 24 21 18 14 11 15 15 20 20 21 21 22 22 22 21 20 19 18 19 20 21 20 22 22 23 22 21 17 19 15 15 17 14 13 15 17 17 17 16 15 14 12 12 12 12 10 9 7
20 18 19 18 17 14 14 14 15 16 21 22 22 22 21 20 20 20 18 18 19 19 19 20 22 22 23 22 22 21 18 16 13 13 15 15 15 17 17 17 16 15 13 13 13 12 12 9 9
14 12 13 14 13 18 21 18 15 15 20 20 20 21 20 20 19 19 18 16 16 16 17 18 21 22 22 23 23 23 22 19 17 17 16 14 12 14 18 17 16 16 13 14 14 13 14 11 10
17 13 10 13 14 15 19 19 17 15 16 18 18 18 18 18 18 18 18 17 16 17 17 18 21 22 22 23 23 24 23 22 21 18 17 15 12 13 18 17 17 16 15 14 13 13 13 13 12
20 20 14 12 14 14 17 20 16 16 15 16 16 16 15 16 16 17 17 17 17 17 18 19 20 21 22 23 23 22 23 17 15 18 15 16 13 14 17 18 17 17 16 15 14 12 13 11 12
16 20 17 12 11 12 12 13 14 11 14 16 16 15 14 14 14 15 15 15 15 16 17 19 20 20 21 22 22 21 22 20 18 18 17 14 14 13 17 18 18 17 16 15 14 11 13 12 12
14 13 11 12 12 13 12 17 11 13 14 14 14 14 13 11 10 10 11 12 12 13 14 16 18 19 20 20 20 17 20 20 19 17 18 16 16 15 16 17 17 16 16 15 14 12 12 13 11
13 13 10 11 11 10 12 10 8 10 12 13 14 13 12 11 10 9 8 8 8 10 11 13 15 16 17 18 19 19 18 19 19 17 17 17 16 16 16 16 16 16 16 15 14 13 13 14 12
10 11 12 11 10 14 12 7 5 8 8 9 9 8 8 7 7 6 6 6 7 8 9 11 13 14 15 16 17 18 17 17 18 17 17 17 16 16 16 15 16 15 15 15 15 15 14 14 14
Wind_Direction
189 190 203 210 215 227 235 226 220 204 205 209 198 200 212 202 198 99 94 157 151 155 158 160 159 157 154 148 144 140 137 136 132 129 124 120 117 114 111 107 102 98 95 95 94 92 88 86 85
183 182 201 217 228 225 230 226 220 218 188 169 198 212 213 214 189 100 144 156 154 155 157 159 158 157 154 150 147 144 140 138 136 132 128 123 120 117 113 108 105 102 100 97 96 94 91 89 88
178 205 214 216 227 229 229 217 228 220 207 203 197 213 222 193 152 145 148 156 155 156 158 154 158 158 155 153 150 147 145 143 139 136 133 128 124 120 115 111 108 106 104 103 100 98 97 94 92
185 198 222 233 231 228 238 193 185 204 205 218 218 201 191 77 93 132 145 158 157 157 157 153 160 159 157 155 153 150 148 146 142 140 137 133 127 121 116 114 112 110 110 108 104 102 102 99 96
211 215 220 230 237 234 234 238 228 224 199 196 213 215 176 112 110 139 154 160 158 157 157 156 162 160 160 158 154 152 150 148 146 143 139 135 130 125 121 119 118 118 117 114 111 107 105 102 99
203 219 228 232 234 233 232 232 236 241 232 212 217 220 168 123 147 151 157 161 159 157 158 156 162 162 161 158 157 155 152 150 149 146 142 139 135 131 128 126 126 124 123 120 116 113 110 106 103
219 222 237 242 243 238 232 226 230 236 236 222 216 215 166 151 149 153 157 160 159 160 161 161 164 163 163 160 158 156 154 153 152 149 145 142 140 138 135 133 130 129 126 122 119 117 114 109 104
230 235 238 238 241 242 229 219 230 235 239 231 216 220 192 150 147 151 153 159 161 166 168 167 167 167 167 163 158 156 155 155 153 148 143 140 143 142 139 139 135 133 130 126 121 118 114 108 103
219 232 234 228 233 238 215 217 222 231 231 211 212 248 58 131 148 150 155 164 169 174 175 174 173 170 169 167 159 159 157 156 153 147 139 148 155 150 150 136 137 138 135 131 125 120 113 114 109
211 230 233 234 234 237 215 221 216 206 213 208 198 166 139 150 160 164 169 173 177 180 181 178 177 172 170 166 165 168 166 165 171 163 161 167 160 151 145 130 138 137 133 132 125 122 131 155 133
217 233 238 237 236 241 235 229 223 227 223 217 207 181 163 168 174 179 181 181 181 180 180 181 180 176 173 169 170 170 170 171 175 169 168 167 158 151 156 154 150 147 152 147 139 157 154 148 124
229 234 239 239 233 236 239 239 232 232 237 235 226 178 171 180 186 189 188 186 182 183 184 182 181 179 178 175 175 175 173 174 172 173 171 169 167 170 166 169 164 163 165 157 164 161 150 148 146
229 236 235 239 239 239 243 242 245 244 246 250 227 180 187 191 195 198 193 186 184 186 185 185 184 183 181 179 179 181 180 176 174 174 178 177 174 176 171 173 169 172 167 170 172 171 160 160 151
229 235 238 237 236 236 241 246 243 244 243 238 221 205 203 201 201 197 195 192 191 190 188 186 187 186 184 184 183 183 181 179 178 177 182 183 181 179 176 176 176 176 177 177 179 174 169 164 160
234 236 238 235 233 232 239 246 238 239 237 236 229 222 216 213 206 203 199 197 194 191 188 188 188 188 188 189 187 184 182 182 182 182 185 186 185 182 181 182 181 181 180 179 181 174 177 165 166
218 226 235 230 226 225 225 245 236 229 230 235 234 228 221 218 213 211 206 203 197 192 190 188 187 191 191 191 189 186 186 185 186 185 186 190 189 186 185 186 187 182 180 183 184 183 184 179 185
209 220 226 228 218 216 220 243 241 225 224 231 232 229 224 220 216 214 209 204 199 195 191 189 190 192 192 191 189 189 187 190 189 188 190 192 192 190 191 191 188 183 186 189 186 194 193 186 184
209 219 225 226 213 214 224 236 236 226 225 230 230 228 224 223 219 212 207 204 200 197 193 192 192 193 190 188 188 188 192 195 194 193 194 193 193 193 194 193 191 187 190 192 192 191 192 193 180
229 226 227 228 220 217 230 237 237 232 227 232 231 228 225 224 223 214 206 202 198 196 195 193 192 192 188 188 190 192 195 196 197 197 197 196 196 194 196 194 192 192 196 196 196 190 188 188 178
232 233 231 231 222 224 237 241 240 236 231 231 232 229 227 226 222 214 206 200 199 197 196 195 195 192 191 194 195 198 196 197 198 195 199 200 200 197 197 197 194 194 198 198 198 194 194 183 191
226 228 227 224 217 224 242 247 239 235 233 232 233 233 230 226 223 213 206 203 200 200 198 196 196 194 195 194 192 190 192 192 195 199 200 201 202 201 199 201 199 197 199 199 198 198 199 193 193
227 224 229 226 219 221 218 246 234 227 226 227 228 227 228 225 224 220 210 204 202 202 198 199 197 197 195 193 193 190 192 196 201 199 199 198 201 202 203 202 203 200 202 202 200 201 204 200 194
229 224 224 226 228 237 223 241 244 220 225 223 223 223 223 223 222 221 215 208 205 202 198 199 198 198 196 195 196 196 201 204 201 198 199 198 199 202 204 204 203 203 204 204 200 199 203 205 204
219 215 221 226 230 234 225 229 246 220 224 223 220 221 221 221 220 221 218 213 208 201 198 198 199 200 198 197 199 201 204 204 200 197 197 196 195 200 204 205 204 204 204 204 202 200 203 206 208
207 192 197 204 213 228 217 224 239 231 224 225 222 221 220 219 218 218 216 211 208 201 198 198 199 200 198 199 201 203 206 205 204 200 200 196 195 197 202 201 204 204 204 203 201 200 203 206 207
208 203 206 206 213 222 212 224 233 228 223 227 231 229 224 219 217 217 216 213 209 204 200 198 199 201 198 199 202 204 206 206 207 205 201 200 199 200 199 201 204 205 202 201 200 201 203 204 207
212 213 223 238 237 225 209 227 235 223 221 222 227 228 225 222 219 219 216 213 210 205 202 200 200 201 200 200 201 204 204 205 206 205 204 203 203 200 199 199 202 204 202 199 197 202 200 202 206
217 209 207 217 217 223 216 220 218 199 207 208 215 219 222 220 217 216 213 210 209 206 203 202 202 202 200 199 200 201 203 204 205 203 203 203 202 197 197 197 200 201 201 198 196 200 201 200 203
202 207 210 213 227 224 223 220 211 206 205 209 215 221 224 220 214 210 208 205 202 199 196 197 200 200 199 199 199 200 202 202 202 203 203 202 201 197 196 196 197 199 199 197 197 199 197 201 202
203 204 206 205 206 221 234 225 160 205 210 211 218 224 227 224 216 208 200 191 188 191 192 194 195 197 198 197 198 199 200 199 200 202 201 200 200 198 196 194 196 198 198 197 198 198 198 200 203